Location: Chandolas
(44.4033°N, 4.2533°E)
Time: 19:27:01
(UTC+00:00)

COSMOS 2487 - Pass Details

Date: 15 November 2019
Orbit: 444 x 448 km, 74.7° (Epoch: 07 December)

Event Time Altitude Azimuth Distance (km) Brightness Sun altitude
Rises 05:54:48 0° 205° (SSW) 2,426 6.0 -8.1°
Reaches altitude 10° 05:56:52 10° 209° (SSW) 1,560 5.0 -7.7°
Maximum altitude 06:00:16 63° 291° (WNW) 502 2.4 -7.2°
Drops below altitude 10° 06:03:42 10° 13° (NNE) 1,574 5.1 -6.6°
Sets 06:05:49 0° 17° (NNE) 2,451 6.1 -6.2°
